Location: Elstree
(51.6403°N, 0.2969°W)
Time: 21:28:07
(UTC+00:00)

Cosmos 2322 - Pass Details

Date: 03 March 2021
Orbit: 842 x 853 km, 71.0° (Epoch: 15 April)

Event Time Altitude Azimuth Distance (km) Brightness Sun altitude
Rises 19:44:23 0° 193° (SSW) 3,410 6.8 -19.2°
Reaches altitude 10° 19:46:51 10° 189° (S) 2,478 6.1 -19.5°
Maximum altitude 19:52:24 56° 113° (ESE) 1,014 3.7 -20.4°
Drops below altitude 10° 19:57:59 10° 37° (NE) 2,492 5.9 -21.2°
Sets 20:00:28 0° 33° (NNE) 3,430 6.7 -21.6°
